Binghamton, NY

4:17 AM EST on November 13, 2019 (GMT -0500)
Binghamton Regional-Link

Weather History for KBGM - September, 2019

Change the Weather History Date:

Thursday, September 26, 2019

  Actual Average Record
Temperature  
Mean Temperature 58 °F 56 °F  
Max Temperature 65 °F 64 °F 85 °F (2017)
Min Temperature 50 °F 47 °F 34 °F (1957)
Degree Days  
Heating Degree Days 7 10  
Month to date heating degree days 112 151  
Since 1 July heating degree days 149 214  
Cooling Degree Days 0 0  
Month to date cooling degree days 18 29  
Year to date cooling degree days 380 377  
Growing Degree Days 9 (Base 50)    
Moisture  
Dew Point 51 °F    
Average Humidity 73    
Maximum Humidity 90    
Minimum Humidity 56    
Precipitation  
Precipitation 0.06 in 0.13 in 1.94 in (1975)
Month to date precipitation 1.72 3.13  
Year to date precipitation 30.51 29.34  
Snow  
Snow 0.00 in 0.00 in 0.00 in (2002)
Month to date snowfall 0.0 0.0  
Since 1 July snowfall 0.0 0.0  
Since 1 September snowfall 0.0 0.0  
Snow Depth 0.00 in    
Sea Level Pressure  
Sea Level Pressure 29.82 in    
Wind  
Wind Speed 6 mph (WSW)    
Max Wind Speed 12 mph    
Max Gust Speed 17 mph    
Visibility 10 miles    
Events Rain    
T = Trace of Precipitation, MM = Missing Value Source: NWS Daily Summary

Daily Weather History Graph

Daily Weather History Graph

Search for Another Location

Airport or City:

Astronomy

Sep. 26, 2019 Rise Set
Actual Time 6:55 AM EDT 6:54 PM EDT
Civil Twilight 6:27 AM EDT 7:22 PM EDT
Nautical Twilight 5:54 AM EDT 7:55 PM EDT
Astronomical Twilight 5:21 AM EDT 8:28 PM EDT
Moon 3:54 AM EDT (9/26) 6:10 PM EDT (9/26)
Length of Visible Light 12h 55m
Length of Day
11h 59m
Waning Crescent, 7% of the Moon is Illuminated
Sep 26
Waning Crescent
Sep 28
New
Oct 5
First Quarter
Oct 13
Full
Oct 21
Last Quarter

Hourly Weather History & Observations

Time (EDT) Temp. Dew Point Humidity Pressure Visibility Wind Dir Wind Speed Gust Speed Precip Events Conditions
12:53 AM 64.0 °F 48.0 °F 56% 29.82 in 10.0 mi SSW 8.1 mph - N/A   Overcast
1:53 AM 63.0 °F 48.0 °F 58% 29.82 in 10.0 mi SSW 4.6 mph - N/A   Overcast
2:53 AM 62.1 °F 48.0 °F 60% 29.80 in 10.0 mi South 5.8 mph - N/A   Overcast
3:53 AM 62.1 °F 48.0 °F 60% 29.78 in 10.0 mi South 5.8 mph - N/A   Overcast
4:53 AM 61.0 °F 48.0 °F 62% 29.77 in 10.0 mi South 4.6 mph - N/A   Overcast
5:53 AM 61.0 °F 48.0 °F 62% 29.75 in 10.0 mi South 5.8 mph - N/A   Scattered Clouds
6:53 AM 62.1 °F 48.0 °F 60% 29.76 in 10.0 mi SSW 6.9 mph - N/A   Overcast
7:53 AM 62.1 °F 48.0 °F 60% 29.76 in 10.0 mi SSW 5.8 mph - N/A   Overcast
8:53 AM 63.0 °F 50.0 °F 63% 29.75 in 10.0 mi South 5.8 mph - N/A   Mostly Cloudy
9:53 AM 62.1 °F 52.0 °F 70% 29.75 in 10.0 mi SSW 6.9 mph - 0.00 in   Overcast
10:53 AM 62.1 °F 53.1 °F 72% 29.78 in 8.0 mi WSW 8.1 mph - 0.01 in Rain Light Rain
11:53 AM 59.0 °F 54.0 °F 83% 29.79 in 8.0 mi WSW 5.8 mph - 0.04 in Rain Light Rain
12:53 PM 59.0 °F 55.0 °F 87% 29.81 in 7.0 mi WNW 3.5 mph - 0.01 in Rain Light Rain
1:22 PM 57.9 °F 55.9 °F 93% 29.82 in 10.0 mi South 4.6 mph - 0.00 in Rain Light Rain
1:53 PM 59.0 °F 57.0 °F 93% 29.78 in 10.0 mi SSW 3.5 mph - 0.00 in   Overcast
2:40 PM 60.1 °F 57.0 °F 90% 29.80 in 10.0 mi SSW 4.6 mph - 0.00 in Rain Light Rain
2:53 PM 60.1 °F 57.0 °F 90% 29.80 in 10.0 mi Calm Calm - 0.00 in   Overcast
3:53 PM 61.0 °F 55.0 °F 81% 29.80 in 10.0 mi West 10.4 mph - 0.00 in   Overcast
4:53 PM 63.0 °F 52.0 °F 67% 29.82 in 10.0 mi NW 8.1 mph - N/A   Mostly Cloudy
5:53 PM 63.0 °F 51.1 °F 65% 29.83 in 10.0 mi WNW 6.9 mph - N/A   Clear
6:53 PM 60.1 °F 52.0 °F 75% 29.86 in 10.0 mi West 6.9 mph - N/A   Clear
7:53 PM 59.0 °F 46.0 °F 62% 29.89 in 10.0 mi West 9.2 mph - N/A   Clear
8:53 PM 57.9 °F 45.0 °F 62% 29.94 in 10.0 mi NW 9.2 mph - N/A   Clear
9:53 PM 55.0 °F 46.0 °F 72% 29.96 in 10.0 mi WNW 4.6 mph - N/A   Scattered Clouds
10:53 PM 54.0 °F 46.0 °F 75% 29.98 in 10.0 mi WNW 3.5 mph - N/A   Scattered Clouds
11:53 PM 53.1 °F 45.0 °F 74% 30.00 in 10.0 mi NW 3.5 mph - N/A   Clear